Temperature
17 16 16 16 16 16 16 16 16 16 15 15 15 15 15 14 14 14 14 14 14 13 13 13 13 13 13 13 12 12 12 12 12 12 12 12 12 12 12 11 11 11 11
16 16 16 16 16 16 16 16 15 15 15 15 15 15 14 14 14 14 14 14 13 13 13 13 13 13 12 12 12 12 12 12 11 11 11 11 11 11 11 11 11 11 11
16 16 16 16 16 15 15 15 15 15 15 15 14 14 14 14 14 14 14 14 13 13 13 13 12 12 12 12 12 12 12 11 11 11 11 11 10 10 10 10 10 10 10
15 15 15 15 15 15 15 15 15 15 14 14 14 14 14 14 14 14 14 13 13 13 13 12 12 12 12 12 12 11 11 11 11 11 10 10 10 10 10 10 10 10 10
15 15 15 15 15 15 15 14 14 14 14 14 14 14 14 14 14 14 14 13 13 13 13 12 12 12 12 11 11 11 11 11 11 10 10 10 10 10 10 10 10 9 9
15 15 15 14 14 14 14 14 14 14 14 14 13 14 14 14 14 14 13 13 13 13 12 12 12 12 11 11 11 11 11 11 10 10 10 10 10 10 10 9 9 9 9
14 14 14 14 14 14 14 14 14 13 13 13 13 13 13 13 14 14 13 13 13 12 12 12 12 11 11 11 11 11 10 10 10 10 10 10 10 9 9 9 9 9 9
14 14 14 14 14 14 14 14 13 13 13 13 13 12 12 13 13 13 13 13 12 12 12 12 11 11 11 11 10 10 10 10 10 9 9 9 9 9 9 9 9 9 9
14 14 14 14 14 14 14 14 13 13 13 13 12 12 12 12 12 12 12 12 12 12 11 11 11 11 10 10 10 10 9 9 9 9 9 9 9 9 9 9 9 9 8
14 14 14 14 14 14 13 13 13 13 13 13 12 12 12 11 11 11 11 11 11 11 11 11 10 10 10 10 9 9 9 9 9 8 8 8 8 8 8 8 8 8 8
14 14 14 14 13 13 13 13 13 13 12 12 12 12 12 11 11 10 10 11 10 10 10 10 10 10 9 9 9 9 8 8 8 8 8 8 8 8 8 8 8 8 8
14 14 14 13 13 13 13 13 12 12 12 12 12 12 11 11 11 10 10 10 10 9 9 9 9 9 9 8 8 8 8 7 7 7 7 7 7 7 7 7 7 7 7
14 14 13 13 13 13 13 12 12 12 12 12 12 11 11 11 10 9 9 9 9 9 9 8 9 8 8 8 8 7 7 7 7 7 7 7 7 7 7 7 7 7 7
14 13 13 13 13 13 12 12 12 12 12 11 11 11 11 10 10 9 9 8 8 8 8 8 8 8 8 7 7 7 6 6 6 6 6 6 6 6 6 6 6 6 6
13 13 13 13 12 12 12 12 12 12 11 11 11 10 10 10 9 9 9 8 8 8 8 7 7 7 7 7 6 6 6 5 5 5 5 5 5 5 5 5 5 5 5
13 12 12 12 12 12 12 11 11 11 11 10 10 10 9 9 9 8 8 8 7 7 7 7 7 6 6 6 6 5 5 5 4 4 5 4 4 4 4 4 4 4 4
12 12 12 11 11 11 11 11 10 10 10 9 9 9 8 8 8 7 7 7 7 6 6 6 6 6 5 5 5 4 4 4 4 4 4 4 4 4 4 4 4 4 4
11 11 11 11 10 10 10 10 9 9 8 8 8 8 7 7 7 7 6 6 6 6 6 6 5 5 5 4 4 4 3 3 3 3 3 3 3 3 3 3 3 3 3
11 10 10 10 10 9 9 9 8 8 8 7 7 7 7 6 6 6 6 6 5 5 5 5 5 5 4 4 3 3 3 3 3 3 2 2 2 2 2 2 2 2 3
10 10 9 9 9 8 8 8 7 7 7 6 6 6 6 5 5 5 5 5 5 5 5 4 4 4 4 3 3 3 2 2 2 2 2 2 2 2 2 2 2 2 2
9 8 8 8 8 7 7 6 6 6 6 5 5 5 5 4 4 4 4 4 4 4 4 4 4 4 3 3 3 2 2 2 2 2 1 1 1 1 1 1 1 1 1
8 8 7 7 7 6 6 5 5 5 5 4 4 4 4 4 3 4 4 3 3 3 3 3 3 3 3 3 2 2 2 1 1 1 1 1 1 1 1 1 1 1 0
7 7 6 6 6 5 5 4 4 4 4 3 3 3 3 3 3 3 3 3 3 3 3 3 2 2 2 2 2 1 1 1 1 1 0 0 0 0 -0 -0 -0 -0 -0
6 6 6 5 5 4 4 4 3 3 3 2 2 2 2 2 2 2 2 2 2 2 2 2 2 2 2 1 1 1 1 0 0 0 -0 -0 -0 -0 -1 -1 -1 -1 -1
5 5 5 4 4 4 3 3 2 2 2 2 2 1 1 1 1 1 1 1 1 1 1 1 1 1 1 1 1 0 0 -0 -0 -0 -1 -1 -1 -1 -1 -1 -1 -1 -2
4 4 4 3 3 3 2 2 2 1 1 1 1 1 1 1 0 0 0 0 0 0 0 0 0 0 0 0 0 -0 -1 -1 -1 -1 -1 -1 -1 -1 -1 -1 -2 -2 -2
Wind_Speed
9 10 10 11 11 10 9 7 7 7 7 7 7 6 6 6 8 9 9 11 11 10 8 7 7 7 6 6 5 5 5 4 4 4 3 3 3 2 2 2 3 3 4
13 10 8 9 10 12 12 10 8 7 5 5 4 5 5 5 7 8 10 11 12 12 11 9 8 8 8 7 7 7 7 7 6 6 6 5 5 4 4 3 3 2 2
15 12 8 8 10 13 12 9 7 5 3 3 2 4 4 5 6 8 9 11 12 13 13 11 10 9 9 8 8 8 8 8 9 9 9 8 7 6 6 6 5 5 3
16 12 7 7 11 11 9 5 3 3 2 2 2 2 3 4 6 8 9 10 11 11 12 12 11 9 8 7 8 8 8 8 9 10 10 11 10 9 9 8 8 7 6
16 12 8 8 10 7 5 3 3 3 3 3 3 3 3 3 5 7 7 8 10 10 10 9 9 8 6 5 6 6 7 8 9 10 11 11 12 12 12 11 10 9 8
14 12 8 8 9 4 3 3 3 3 2 3 2 3 4 4 4 4 5 6 6 6 7 6 5 5 4 4 4 5 6 6 7 8 10 11 12 12 13 13 13 12 11
13 11 6 6 6 5 5 5 3 3 3 2 1 3 3 4 4 3 3 2 1 2 3 4 4 4 2 1 2 4 5 6 6 7 7 9 10 12 13 13 13 14 14
12 11 8 5 5 4 4 4 4 3 3 3 3 1 3 4 3 2 1 1 1 1 2 2 3 3 2 1 2 2 4 5 6 7 8 8 9 10 11 12 12 12 13
11 10 9 7 5 5 5 4 4 5 4 3 3 3 3 4 2 2 2 2 1 2 2 3 3 3 3 3 3 3 3 4 6 7 7 7 8 9 9 9 9 10 10
10 10 9 7 5 4 4 4 4 3 4 3 3 3 4 3 3 2 1 2 3 2 2 2 4 4 4 4 4 4 4 5 6 6 6 7 7 6 6 7 7 7 7
7 8 8 6 5 4 4 3 3 3 4 4 3 2 3 3 4 4 3 1 1 1 2 2 3 4 5 5 6 6 6 6 6 6 6 6 6 6 5 4 4 3 2
3 5 7 6 5 4 4 3 3 4 4 4 3 3 3 3 3 4 5 3 3 1 2 2 3 3 5 5 6 7 7 7 7 7 7 7 7 6 5 5 5 4 3
4 5 4 4 4 4 4 3 3 3 3 3 4 3 3 3 2 2 3 3 3 2 2 1 2 3 4 5 6 7 8 8 8 8 8 8 8 8 6 6 7 6 6
5 5 5 5 5 4 4 3 3 2 2 3 3 3 2 2 2 3 3 3 3 2 3 3 1 2 4 5 6 7 7 8 8 9 9 10 10 9 9 9 10 10 9
4 5 5 5 4 4 4 3 2 2 2 2 2 2 2 2 2 3 3 3 4 4 4 4 2 1 3 5 5 6 7 8 8 9 9 10 10 11 11 12 12 12 11
5 6 5 5 4 3 3 3 2 2 2 2 2 2 2 2 2 2 2 3 3 4 3 2 2 2 3 5 6 6 7 7 7 8 8 9 9 10 11 11 12 12 11
6 6 6 5 4 3 3 3 2 2 2 1 1 1 1 1 1 1 1 2 2 2 3 2 2 2 2 3 5 6 6 6 6 7 7 7 7 8 9 10 10 10 10
6 5 5 5 4 4 3 3 2 2 2 2 2 1 1 0 0 1 1 1 1 1 3 3 2 2 2 3 4 4 4 5 6 5 5 6 6 6 7 8 8 8 8
6 5 5 5 4 3 3 2 2 2 2 1 1 1 1 1 1 0 0 0 0 1 1 3 3 2 2 2 3 3 3 3 4 5 5 5 5 5 5 6 6 6 7
6 5 5 4 3 3 3 2 2 2 2 2 2 1 1 1 1 1 1 0 1 1 2 3 3 3 2 2 3 3 2 2 2 4 4 4 4 4 4 4 4 4 5
6 5 5 4 3 2 2 3 3 3 3 3 2 2 1 2 2 2 1 1 2 2 3 3 3 3 2 3 3 2 2 1 1 2 2 3 3 4 4 4 3 3 3
5 5 4 4 3 2 3 4 4 3 3 3 3 2 2 3 3 4 4 3 3 3 4 4 3 3 4 3 3 3 3 2 1 1 1 1 2 1 2 3 3 2 2
5 5 4 4 3 3 4 4 5 4 3 3 3 3 2 3 4 4 6 7 5 3 4 4 4 4 5 5 5 4 3 2 2 1 1 0 1 1 2 4 3 1 1
5 4 4 4 3 3 4 4 5 4 3 3 3 4 3 3 3 4 4 4 5 4 3 3 4 4 4 5 5 5 4 3 2 2 1 1 1 1 2 4 3 1 2
4 4 4 4 4 3 5 5 6 4 3 3 3 3 4 3 5 6 5 4 4 3 6 8 8 8 8 9 9 5 4 3 1 0 1 1 0 1 2 2 3 3 3
5 4 4 4 4 4 6 7 7 4 4 3 2 3 5 5 5 6 5 5 4 2 2 4 6 6 6 6 6 5 5 3 2 2 1 1 1 1 1 2 3 4 4
Wind_Direction
172 177 183 185 191 195 200 209 219 229 241 247 243 232 230 217 209 210 215 219 220 222 225 226 227 227 226 225 222 214 208 205 200 195 189 180 170 161 148 132 113 98 81
178 179 185 191 199 205 209 212 217 221 227 226 227 228 232 229 223 222 228 229 230 231 233 235 238 239 238 237 236 229 221 220 218 214 212 209 207 205 203 198 185 163 137
180 181 184 191 200 205 208 210 216 216 223 226 238 243 245 249 245 240 238 236 237 238 239 240 242 244 246 245 245 242 233 228 228 224 221 220 219 219 219 218 214 209 206
183 180 181 191 196 195 194 190 188 193 212 221 242 260 263 265 260 252 247 243 242 244 243 241 242 244 250 255 256 256 249 239 233 229 226 226 226 226 226 226 225 223 221
183 180 181 187 186 183 187 187 185 183 203 226 244 260 266 261 260 260 252 248 243 241 238 238 238 240 247 260 271 272 267 258 249 240 235 233 233 232 231 230 228 226 222
183 180 184 188 183 177 188 188 190 188 196 210 248 272 271 267 266 260 257 253 242 232 225 221 221 227 238 253 276 290 294 289 274 259 251 246 242 240 238 237 233 230 227
182 180 183 186 185 188 195 192 184 192 211 179 191 300 300 284 275 273 262 251 234 218 201 202 202 195 199 246 295 302 312 316 308 290 277 266 259 251 246 242 239 235 232
181 184 182 182 185 187 190 189 180 182 208 180 173 217 302 320 326 331 329 239 219 129 121 137 144 144 137 103 15 341 333 328 321 310 298 285 273 264 258 252 247 240 235
182 181 184 180 177 181 192 195 188 188 208 215 193 185 207 245 294 334 16 25 53 74 76 91 97 102 108 94 55 21 358 344 329 318 310 302 291 282 276 269 265 252 242
177 179 178 175 170 173 184 196 190 191 191 214 225 225 219 202 221 274 322 23 50 54 46 74 86 86 90 85 66 44 25 5 345 330 321 321 317 304 296 294 288 275 254
169 172 169 165 164 167 179 190 194 198 204 210 211 216 228 230 224 225 248 239 54 41 41 54 74 82 83 85 71 52 42 28 8 351 346 346 344 342 335 335 340 327 277
163 160 156 154 158 160 166 184 194 198 209 215 218 215 208 215 217 217 232 224 214 166 66 48 61 75 82 82 72 58 49 40 25 15 11 13 11 6 7 19 24 26 26
179 181 162 159 158 161 160 162 186 205 208 211 217 224 226 229 220 221 231 232 218 184 151 71 42 87 92 89 78 66 56 49 38 30 26 30 30 27 31 41 44 47 48
176 166 158 156 154 153 152 157 182 199 200 210 218 217 223 234 227 225 224 219 233 213 188 179 76 80 102 98 89 79 65 60 53 49 47 45 43 44 51 52 54 56 58
154 150 150 153 152 148 148 156 174 188 189 208 216 213 220 230 232 235 231 220 222 231 219 177 169 142 127 112 105 91 75 66 64 61 59 56 55 58 59 59 59 59 60
145 144 144 143 140 136 134 138 147 161 170 206 215 211 215 226 235 239 235 234 225 223 216 151 152 149 136 125 115 101 87 73 68 70 70 66 64 63 64 63 60 58 58
145 146 145 141 139 137 134 134 143 159 185 208 215 206 221 232 244 259 249 231 222 205 205 137 118 126 125 130 112 99 88 76 67 68 71 72 70 70 67 63 59 56 55
131 135 131 131 137 135 131 141 156 168 189 206 213 191 215 122 275 321 272 239 221 199 171 161 141 141 138 149 128 110 87 75 64 63 69 71 74 74 70 64 59 56 56
116 115 120 131 134 129 124 132 150 151 159 168 165 176 186 162 211 275 287 252 232 150 133 143 142 128 120 139 121 98 85 57 60 54 62 66 73 72 67 62 57 57 58
118 114 114 119 118 115 119 126 134 133 126 112 106 120 139 162 189 189 174 182 137 124 120 125 125 120 119 122 123 125 104 51 30 33 42 54 59 65 63 59 55 61 60
122 122 122 115 111 120 141 148 146 143 135 116 95 87 94 118 139 151 151 165 154 146 137 134 135 130 142 147 161 150 140 100 25 21 14 18 36 45 44 43 46 56 54
124 126 130 133 142 157 168 167 156 148 148 147 139 106 83 76 89 91 95 117 153 163 168 158 156 163 170 162 139 138 131 133 227 320 60 355 29 15 357 2 3 17 37
141 142 145 149 158 173 177 176 169 152 157 160 158 149 129 107 87 75 73 64 58 83 159 162 162 173 166 169 150 140 147 155 190 223 110 238 357 313 310 327 331 0 47
153 156 161 160 161 184 183 173 163 141 151 163 167 163 154 144 141 124 101 76 56 44 72 108 144 156 156 150 152 154 151 126 91 30 81 174 308 299 319 327 342 45 46
159 164 166 169 175 191 188 177 160 142 154 165 170 171 170 178 179 155 131 116 87 53 77 102 115 126 134 143 140 121 126 121 145 228 23 134 209 319 317 313 338 3 2
166 166 173 185 187 197 202 194 175 158 166 171 174 187 193 195 198 179 156 153 153 147 98 88 86 87 91 116 137 142 148 141 152 206 232 124 110 37 320 306 321 342 355
Height
1566 1567 1569 1571 1572 1573 1575 1576 1576 1577 1578 1578 1578 1578 1578 1578 1578 1578 1578 1578 1577 1576 1576 1575 1574 1573 1572 1571 1570 1570 1569 1568 1567 1567 1566 1565 1564 1563 1562 1561 1560 1559 1558
1565 1566 1568 1570 1571 1572 1574 1575 1576 1576 1577 1577 1577 1577 1577 1577 1577 1577 1577 1576 1576 1575 1574 1573 1572 1572 1571 1570 1569 1568 1568 1567 1566 1566 1565 1564 1563 1562 1561 1561 1560 1559 1558
1563 1565 1567 1568 1570 1571 1572 1573 1574 1574 1575 1575 1576 1576 1576 1576 1575 1575 1575 1574 1574 1573 1572 1572 1571 1570 1569 1568 1568 1567 1566 1565 1565 1564 1563 1563 1562 1561 1561 1560 1559 1558 1557
1562 1564 1565 1567 1568 1569 1570 1571 1572 1573 1573 1573 1574 1574 1574 1574 1573 1573 1572 1571 1571 1570 1570 1569 1569 1568 1567 1567 1566 1565 1564 1563 1563 1562 1561 1561 1560 1560 1559 1558 1558 1557 1556
1560 1562 1563 1565 1566 1567 1568 1569 1570 1570 1571 1571 1571 1571 1571 1571 1571 1570 1569 1568 1568 1567 1567 1567 1566 1566 1565 1565 1564 1563 1562 1561 1560 1559 1559 1558 1558 1557 1557 1556 1556 1555 1555
1557 1559 1561 1562 1564 1565 1566 1566 1567 1568 1568 1569 1568 1568 1568 1568 1567 1567 1566 1565 1565 1564 1564 1564 1564 1563 1563 1562 1562 1561 1560 1559 1558 1557 1556 1555 1555 1554 1554 1554 1553 1553 1552
1555 1556 1558 1559 1561 1562 1563 1564 1564 1565 1565 1566 1566 1565 1564 1564 1563 1563 1562 1562 1562 1561 1561 1561 1561 1561 1560 1560 1559 1558 1557 1556 1555 1554 1553 1552 1551 1551 1550 1550 1550 1549 1549
1551 1553 1555 1556 1558 1559 1560 1560 1561 1561 1562 1563 1562 1562 1561 1561 1559 1559 1559 1559 1558 1558 1558 1558 1558 1557 1557 1557 1556 1555 1554 1553 1552 1551 1549 1548 1547 1547 1546 1546 1546 1545 1545
1548 1550 1552 1553 1554 1555 1556 1557 1558 1558 1558 1559 1559 1559 1558 1557 1556 1555 1555 1555 1555 1555 1555 1555 1554 1554 1554 1553 1552 1552 1551 1549 1548 1547 1546 1544 1544 1543 1543 1542 1542 1541 1541
1544 1546 1548 1549 1550 1551 1552 1553 1554 1554 1555 1554 1555 1555 1555 1554 1554 1552 1552 1552 1552 1551 1551 1551 1551 1550 1550 1549 1549 1548 1547 1546 1545 1544 1542 1541 1540 1539 1539 1538 1537 1537 1537
1540 1542 1544 1545 1546 1547 1548 1549 1550 1550 1550 1550 1550 1550 1550 1550 1550 1549 1548 1547 1548 1547 1547 1547 1547 1546 1546 1545 1545 1544 1543 1542 1541 1540 1539 1537 1536 1536 1535 1534 1534 1533 1533
1537 1538 1540 1541 1542 1543 1543 1545 1545 1546 1546 1546 1546 1545 1545 1545 1544 1544 1544 1543 1543 1543 1543 1542 1542 1542 1542 1541 1541 1540 1539 1538 1537 1537 1535 1534 1533 1532 1532 1531 1530 1530 1530
1533 1534 1535 1537 1538 1538 1539 1540 1541 1541 1541 1541 1540 1540 1539 1539 1539 1539 1539 1538 1538 1538 1538 1538 1538 1538 1537 1537 1537 1536 1535 1535 1534 1533 1532 1531 1530 1529 1528 1528 1527 1527 1527
1529 1530 1532 1533 1533 1534 1535 1535 1535 1536 1536 1535 1535 1534 1534 1534 1534 1534 1534 1534 1533 1533 1533 1533 1533 1533 1533 1533 1533 1533 1532 1531 1530 1530 1529 1528 1527 1526 1525 1525 1525 1524 1524
1524 1526 1527 1529 1529 1530 1530 1530 1530 1530 1530 1530 1530 1529 1529 1528 1528 1528 1528 1529 1530 1529 1528 1528 1529 1529 1529 1529 1529 1529 1528 1528 1527 1526 1525 1525 1524 1524 1523 1523 1523 1522 1522
1520 1521 1523 1524 1525 1525 1526 1526 1525 1525 1525 1525 1525 1524 1523 1523 1523 1523 1523 1523 1524 1524 1524 1523 1524 1524 1524 1525 1525 1524 1524 1524 1523 1523 1522 1522 1522 1522 1521 1521 1521 1520 1520
1515 1517 1518 1519 1520 1520 1520 1520 1520 1520 1520 1520 1520 1519 1518 1518 1518 1518 1518 1518 1518 1519 1519 1519 1520 1520 1520 1521 1521 1521 1520 1520 1520 1520 1519 1519 1519 1519 1519 1519 1519 1518 1518
1511 1512 1513 1514 1515 1515 1515 1515 1515 1515 1515 1515 1515 1514 1513 1513 1513 1513 1513 1513 1513 1514 1515 1515 1515 1516 1516 1517 1517 1517 1517 1517 1517 1517 1517 1517 1517 1517 1516 1516 1516 1516 1516
1507 1508 1509 1510 1510 1510 1510 1511 1511 1511 1510 1510 1510 1509 1509 1508 1508 1508 1508 1509 1509 1510 1510 1511 1511 1511 1512 1513 1513 1513 1514 1514 1514 1514 1514 1514 1514 1514 1514 1514 1514 1514 1514
1502 1503 1505 1505 1505 1505 1505 1506 1506 1506 1505 1505 1505 1505 1504 1504 1504 1504 1504 1505 1505 1505 1506 1506 1507 1507 1508 1509 1509 1510 1510 1511 1511 1512 1512 1512 1511 1512 1511 1511 1511 1511 1511
1499 1500 1501 1501 1501 1501 1501 1501 1501 1501 1501 1501 1501 1501 1500 1500 1500 1500 1501 1501 1501 1501 1502 1502 1503 1504 1504 1505 1506 1506 1507 1508 1508 1509 1509 1509 1509 1509 1509 1508 1508 1508 1508
1495 1496 1497 1497 1497 1497 1497 1497 1497 1497 1497 1497 1497 1497 1497 1497 1497 1497 1497 1497 1497 1498 1498 1499 1499 1500 1501 1502 1502 1503 1504 1505 1506 1507 1506 1506 1506 1506 1506 1506 1506 1505 1505
1492 1492 1493 1493 1494 1493 1493 1493 1493 1493 1493 1493 1493 1493 1493 1493 1493 1493 1493 1493 1494 1494 1495 1496 1496 1497 1498 1498 1500 1500 1501 1502 1503 1503 1503 1503 1503 1503 1503 1503 1503 1503 1503
1488 1489 1489 1489 1490 1490 1490 1490 1489 1489 1489 1490 1490 1490 1490 1490 1490 1490 1490 1490 1490 1491 1492 1492 1493 1494 1495 1496 1497 1498 1498 1499 1500 1500 1501 1501 1500 1501 1501 1500 1500 1500 1500
1485 1485 1486 1486 1486 1486 1486 1486 1486 1486 1486 1486 1487 1487 1487 1487 1487 1487 1488 1488 1488 1488 1489 1489 1490 1491 1492 1493 1494 1495 1495 1496 1496 1497 1498 1498 1498 1498 1498 1498 1498 1498 1498
1481 1482 1482 1482 1482 1483 1483 1483 1483 1483 1483 1483 1484 1484 1484 1485 1485 1485 1485 1485 1486 1486 1486 1487 1488 1488 1489 1490 1491 1492 1493 1493 1494 1494 1494 1495 1495 1495 1495 1495 1495 1495 1495